Hourly Data Report for June 19, 2020

WESTERN HEAD
NOVA SCOTIA
Current Station Operator: ECCC - MSC

43°59'24.070" N
64°39'51.008" W
10.10 m
8206240
71411
WWE

Download Data

Hourly Data (June 2020)
Hourly Data Report for June 19, 2020
TIME
LST
Temp Definition
°C
Dew Point Definition
°C
Rel Hum Definition
%
Precip. Amount Definition
mm

Wind Dir Definition
10's deg

Wind Spd Definition
km/h
Visibility Definition
km
Stn Press Definition
kPa
Hmdx Definition


Wind Chill Definition


Weather Definition


00:00 12.8 12.8 100 0.0 23 18   101.64     LegendNANA
01:00 12.5 12.5 100 0.0 22 21   101.62     LegendNANA
02:00 13.6 13.6 100 0.0 25 10   101.63     LegendNANA
03:00 14.5 14.5 100 0.0 25 12   101.63     LegendNANA
04:00 14.1 14.1 100 0.0 24 14   101.63     LegendNANA
05:00 13.0 13.0 100 0.0 23 15   101.62     LegendNANA
06:00 12.4 12.4 100 0.0 22 11   101.61     LegendNANA
07:00 13.9 13.9 100 0.0 22 19   101.60     LegendNANA
08:00 12.5 12.5 100 0.0 21 5   101.63     LegendNANA
09:00 14.8 12.6 87 0.0 23 7   101.60     LegendNANA
10:00 16.1 13.3 83 0.0 21 10   101.57     LegendNANA
11:00 16.3 13.0 81 0.0 20 17   101.53     LegendNANA
12:00 17.8 13.2 75 0.0 24 11   101.49     LegendNANA
13:00 16.8 12.9 78 0.0 25 12   101.44     LegendNANA
14:00 15.9 11.7 76 0.0 25 14   101.40     LegendNANA
15:00 15.4 11.8 79 0.0 23 14   101.35     LegendNANA
16:00 15.5 11.2 76 0.0 24 7   101.30     LegendNANA
17:00 14.6 10.7 77 0.0 27 10   101.29     LegendNANA
18:00 13.2 10.2 82 0.0 25 11   101.31     LegendNANA
19:00 13.0 10.0 82 0.0 21 14   101.34     LegendNANA
20:00 15.6 12.5 82 0.0 23 14   101.35     LegendNANA
21:00 14.1 12.7 91 0.0 23 14   101.41     LegendNANA
22:00 13.3 13.3 100 0.0 22 16   101.42     LegendNANA
23:00 12.2 12.2 100 0.0 23 16   101.42     LegendNANA

Notes on Data Quality.

Legend

  • E = Estimated
  • M = Missing
  • NA = Not Available*
  • [empty] = Indicates an unobserved value
Date modified: